| time (UTC) | temp C | wind direction | speed KPH | gust KPH | rain 1hr cm | rain 24hr cm | rain mn cm | humidity % | barometer mb |
| 20260906174535 | 35 | 85 | 3.2 | 9.7 | 0.00 | 0.00 | 0.00 | 57 | 1010.4 |
| 20260906173034 | 34 | 133 | 3.2 | 8.0 | 0.00 | 0.00 | 0.00 | 58 | 1010.4 |
| 20260906171531 | 34 | 112 | 1.6 | 11.3 | 0.00 | 0.00 | 0.00 | 59 | 1010.7 |
| 20260906170103 | 33 | 199 | 4.8 | 11.3 | 0.00 | 0.00 | 0.00 | 59 | 1010.9 |
| 20260906164525 | 33 | 102 | 3.2 | 9.7 | 0.00 | 0.00 | 0.00 | 62 | 1011.1 |
| 20260906163024 | 33 | 79 | 3.2 | 6.4 | 0.00 | 0.00 | 0.00 | 64 | 1011.2 |
| 20260906161521 | 32 | 94 | 1.6 | 9.7 | 0.00 | 0.00 | 0.00 | 66 | 1011.2 |
| 20260906160018 | 32 | 96 | 3.2 | 9.7 | 0.00 | 0.00 | 0.00 | 67 | 1011.3 |
| 20260906154520 | 31 | 66 | 0.0 | 6.4 | 0.00 | 0.00 | 0.00 | 72 | 1011.2 |
| 20260906153016 | 30 | 62 | 0.0 | 6.4 | 0.00 | 0.00 | 0.00 | 73 | 1011.0 |
| 20260906151508 | 30 | 49 | 1.6 | 9.7 | 0.00 | 0.00 | 0.00 | 73 | 1011.0 |
| 20260906150006 | 29 | 67 | 3.2 | 11.3 | 0.00 | 0.00 | 0.00 | 73 | 1011.0 |
| 20260906144502 | 28 | 47 | 3.2 | 12.9 | 0.00 | 0.00 | 0.00 | 74 | 1011.1 |
| 20260906143129 | 28 | 87 | 3.2 | 8.0 | 0.00 | 0.00 | 0.00 | 75 | 1011.1 |
| 20260906141557 | 27 | 87 | 1.6 | 9.7 | 0.00 | 0.00 | 0.00 | 77 | 1011.3 |
| 20260906140054 | 27 | 87 | 1.6 | 4.8 | 0.00 | 0.00 | 0.00 | 80 | 1011.3 |
| 20260906134558 | 26 | 87 | 1.6 | 8.0 | 0.00 | 0.00 | 0.00 | 82 | 1011.3 |
| 20260906133045 | 25 | 87 | 0.0 | 3.2 | 0.00 | 0.00 | 0.00 | 87 | 1011.2 |
| 20260906131541 | 24 | 87 | 0.0 | 0.0 | 0.00 | 0.00 | 0.00 | 93 | 1011.0 |
| 20260906130040 | 23 | 87 | 0.0 | 0.0 | 0.00 | 0.00 | 0.00 | 94 | 1010.9 |
| 20260906124544 | 22 | 87 | 0.0 | 0.0 | 0.00 | 0.00 | 0.00 | 94 | 1010.7 |
| 20260906123106 | 22 | 87 | 0.0 | 0.0 | 0.00 | 0.00 | 0.00 | 94 | 1010.5 |
| 20260906121540 | 22 | 87 | 0.0 | 0.0 | 0.00 | 0.00 | 0.00 | 94 | 1010.4 |
| 20260906120032 | 22 | 87 | 0.0 | 0.0 | 0.00 | 0.00 | 0.00 | 93 | 1010.1 |
| 20260906114533 | 22 | 87 | 0.0 | 0.0 | 0.00 | 0.00 | 0.00 | 93 | 1010.0 |
| 20260906113032 | 22 | 87 | 0.0 | 0.0 | 0.00 | 0.00 | 0.00 | 93 | 1009.9 |
| 20260906111531 | 22 | 87 | 0.0 | 0.0 | 0.00 | 0.00 | 0.00 | 93 | 1009.9 |
| 20260906110028 | 22 | 87 | 0.0 | 0.0 | 0.00 | 0.00 | 0.00 | 93 | 1009.8 |
| 20260906104530 | 22 | 87 | 0.0 | 0.0 | 0.00 | 0.00 | 0.00 | 93 | 1009.6 |
| 20260906103026 | 22 | 87 | 0.0 | 0.0 | 0.00 | 0.00 | 0.00 | 93 | 1009.7 |
| 20260906101526 | 22 | 87 | 0.0 | 0.0 | 0.00 | 0.00 | 0.00 | 93 | 1009.7 |
| 20260906100027 | 22 | 87 | 0.0 | 0.0 | 0.00 | 0.00 | 0.00 | 92 | 1009.7 |
| 20260906094522 | 22 | 87 | 0.0 | 0.0 | 0.00 | 0.00 | 0.00 | 92 | 1009.6 |
| 20260906093023 | 22 | 87 | 0.0 | 0.0 | 0.00 | 0.00 | 0.00 | 92 | 1009.4 |
| 20260906091520 | 23 | 87 | 0.0 | 0.0 | 0.00 | 0.00 | 0.00 | 91 | 1009.3 |
| 20260906090020 | 23 | 87 | 0.0 | 0.0 | 0.00 | 0.00 | 0.00 | 91 | 1009.2 |
| 20260906084518 | 23 | 87 | 0.0 | 0.0 | 0.00 | 0.00 | 0.00 | 91 | 1009.1 |
| 20260906083020 | 23 | 87 | 0.0 | 0.0 | 0.00 | 0.00 | 0.00 | 91 | 1009.1 |
| 20260906081516 | 23 | 87 | 0.0 | 0.0 | 0.00 | 0.00 | 0.00 | 91 | 1009.0 |
| 20260906080025 | 23 | 87 | 0.0 | 0.0 | 0.00 | 0.00 | 0.00 | 90 | 1008.9 |
| 20260906074515 | 23 | 87 | 0.0 | 0.0 | 0.00 | 0.00 | 0.00 | 90 | 1008.9 |
| 20260906073013 | 23 | 87 | 0.0 | 0.0 | 0.00 | 0.00 | 0.00 | 90 | 1008.9 |
| 20260906071511 | 23 | 87 | 0.0 | 0.0 | 0.00 | 0.00 | 0.00 | 89 | 1009.0 |
| 20260906070010 | 23 | 87 | 0.0 | 0.0 | 0.00 | 0.00 | 0.00 | 89 | 1009.2 |
| 20260906064508 | 24 | 87 | 0.0 | 0.0 | 0.00 | 0.00 | 0.00 | 89 | 1009.2 |
| 20260906063007 | 24 | 87 | 0.0 | 0.0 | 0.00 | 0.00 | 0.00 | 88 | 1009.3 |
| 20260906061506 | 24 | 87 | 0.0 | 0.0 | 0.00 | 0.00 | 0.00 | 88 | 1009.4 |
| 20260906060004 | 24 | 87 | 0.0 | 3.2 | 0.00 | 0.00 | 0.00 | 88 | 1009.5 |
| 20260906054501 | 25 | 87 | 0.0 | 0.0 | 0.00 | 0.00 | 0.00 | 87 | 1009.4 |
| 20260906053109 | 25 | 87 | 0.0 | 0.0 | 0.00 | 0.00 | 0.00 | 87 | 1009.4 |
| 20260906051602 | 25 | 87 | 0.0 | 0.0 | 0.00 | 0.00 | 0.00 | 86 | 1009.3 |
| 20260906050059 | 25 | 87 | 0.0 | 0.0 | 0.00 | 0.00 | 0.00 | 86 | 1009.4 |
| 20260906044558 | 25 | 87 | 0.0 | 0.0 | 0.00 | 0.00 | 0.00 | 86 | 1009.3 |
| 20260906043102 | 25 | 87 | 0.0 | 0.0 | 0.00 | 0.00 | 0.00 | 85 | 1009.2 |
| 20260906041601 | 25 | 87 | 0.0 | 0.0 | 0.00 | 0.00 | 0.00 | 85 | 1009.2 |
| 20260906040057 | 26 | 87 | 0.0 | 0.0 | 0.00 | 0.00 | 0.00 | 85 | 1009.1 |
| 20260906034556 | 26 | 87 | 0.0 | 0.0 | 0.00 | 0.00 | 0.00 | 84 | 1008.9 |
| 20260906033109 | 26 | 87 | 0.0 | 0.0 | 0.00 | 0.00 | 0.00 | 84 | 1008.8 |
| 20260906031556 | 26 | 87 | 0.0 | 0.0 | 0.00 | 0.00 | 0.00 | 83 | 1008.7 |
| 20260906030056 | 27 | 87 | 0.0 | 0.0 | 0.00 | 0.00 | 0.00 | 83 | 1008.5 |
| 20260906024557 | 27 | 87 | 0.0 | 0.0 | 0.00 | 0.00 | 0.00 | 83 | 1008.3 |
| 20260906023056 | 27 | 87 | 0.0 | 0.0 | 0.00 | 0.00 | 0.00 | 82 | 1008.2 |
| 20260906021558 | 28 | 87 | 0.0 | 0.0 | 0.00 | 0.00 | 0.00 | 80 | 1008.0 |
| 20260906020105 | 28 | 87 | 0.0 | 0.0 | 0.00 | 0.00 | 0.00 | 79 | 1007.8 |
| 20260906014555 | 28 | 87 | 0.0 | 0.0 | 0.00 | 0.00 | 0.00 | 78 | 1007.6 |
| 20260906013106 | 29 | 87 | 0.0 | 0.0 | 0.00 | 0.00 | 0.00 | 76 | 1007.5 |
| 20260906011602 | 30 | 87 | 0.0 | 0.0 | 0.00 | 0.00 | 0.00 | 75 | 1007.4 |
| 20260906010052 | 31 | 87 | 0.0 | 0.0 | 0.00 | 0.00 | 0.00 | 74 | 1007.3 |
| 20260906004601 | 31 | 87 | 0.0 | 0.0 | 0.00 | 0.00 | 0.00 | 72 | 1007.2 |
| 20260906003057 | 32 | 87 | 0.0 | 0.0 | 0.00 | 0.00 | 0.00 | 70 | 1007.3 |
| 20260906001552 | 33 | 87 | 0.0 | 0.0 | 0.00 | 0.00 | 0.00 | 69 | 1007.2 |
| 20260906000057 | 33 | 87 | 0.0 | 0.0 | 0.00 | 0.00 | 0.00 | 66 | 1007.3 |
| 20260905234550 | 34 | 87 | 0.0 | 0.0 | 0.00 | 0.00 | 0.00 | 62 | 1007.2 |
| 20260905233049 | 34 | 87 | 0.0 | 0.0 | 0.00 | 0.00 | 0.00 | 60 | 1007.2 |
| 20260905231549 | 35 | 87 | 0.0 | 0.0 | 0.00 | 0.00 | 0.00 | 57 | 1007.0 |
| 20260905230053 | 36 | 87 | 0.0 | 0.0 | 0.00 | 0.00 | 0.00 | 52 | 1007.0 |
| 20260905224551 | 36 | 87 | 0.0 | 3.2 | 0.00 | 0.00 | 0.00 | 52 | 1007.1 |
| 20260905223046 | 36 | 87 | 0.0 | 8.0 | 0.00 | 0.00 | 0.00 | 50 | 1007.1 |
| 20260905221546 | 37 | 87 | 1.6 | 8.0 | 0.00 | 0.00 | 0.00 | 46 | 1007.0 |
| 20260905220045 | 37 | 87 | 1.6 | 11.3 | 0.00 | 0.00 | 0.00 | 45 | 1007.1 |
| 20260905214543 | 38 | 42 | 3.2 | 6.4 | 0.00 | 0.00 | 0.00 | 44 | 1007.3 |
| 20260905213041 | 37 | 33 | 1.6 | 6.4 | 0.00 | 0.00 | 0.00 | 45 | 1007.6 |
| 20260905211549 | 37 | 41 | 4.8 | 9.7 | 0.00 | 0.00 | 0.00 | 47 | 1007.8 |
| 20260905210039 | 37 | 70 | 3.2 | 8.0 | 0.00 | 0.00 | 0.00 | 46 | 1008.1 |
| 20260905204538 | 37 | 246 | 4.8 | 9.7 | 0.00 | 0.00 | 0.00 | 46 | 1008.2 |
| 20260905203036 | 37 | 170 | 4.8 | 11.3 | 0.00 | 0.00 | 0.00 | 46 | 1008.4 |
| 20260905201534 | 37 | 328 | 1.6 | 6.4 | 0.00 | 0.00 | 0.00 | 45 | 1008.5 |
| 20260905200038 | 37 | 319 | 1.6 | 8.0 | 0.00 | 0.00 | 0.00 | 45 | 1008.7 |
| 20260905194528 | 37 | 354 | 0.0 | 8.0 | 0.00 | 0.00 | 0.00 | 47 | 1009.0 |
| 20260905193024 | 36 | 59 | 0.0 | 6.4 | 0.00 | 0.00 | 0.00 | 48 | 1009.1 |
| 20260905191526 | 35 | 73 | 3.2 | 6.4 | 0.00 | 0.00 | 0.00 | 50 | 1009.2 |
| 20260905190019 | 35 | 131 | 0.0 | 4.8 | 0.00 | 0.00 | 0.00 | 53 | 1009.3 |
| 20260905184541 | 35 | 131 | 0.0 | 4.8 | 0.00 | 0.00 | 0.00 | 54 | 1009.4 |
| 20260905183036 | 35 | 131 | 3.2 | 8.0 | 0.00 | 0.00 | 0.00 | 53 | 1009.6 |
| 20260905181521 | 35 | 119 | 3.2 | 11.3 | 0.00 | 0.00 | 0.00 | 55 | 1009.7 |
| 20260905180019 | 35 | 120 | 1.6 | 8.0 | 0.00 | 0.00 | 0.00 | 55 | 1009.9 |